Weather History for Shenandoah, IA

Change the Weather History Date:

Wednesday, September 28, 2011

  Actual Average Record
Temperature  
Mean Temperature 63 °F -  
Max Temperature 84 °F 76 °F 102 °F (1953)
Min Temperature 42 °F 49 °F 29 °F (1951)
Degree Days  
Heating Degree Days 2    
Growing Degree Days 13 (Base 50)    
Moisture  
Dew Point 42 °F    
Average Humidity 57    
Maximum Humidity 88    
Minimum Humidity 18    
Precipitation  
Precipitation 0.00 in - - ()
Sea Level Pressure  
Sea Level Pressure 29.89 in    
Wind  
Wind Speed 1 mph (NNW)    
Max Wind Speed 8 mph    
Max Gust Speed -    
Visibility 8 miles    
Events      
Averages and records for this station are not official NWS values.
T = Trace of Precipitation, MM = Missing Value Source: NWS Daily Summary

Daily Weather History Graph

Daily Weather History Graph

Search for Another Location

Airport:

Trip Planner

Search our weather history database for the weather conditions in past years. The results will help you decide how hot, cold, wet, or windy it might be!

Date:

Astronomy

Sep. 28, 2011 Rise Set
Actual Time 7:14 AM CDT 7:09 PM CDT
Civil Twilight 6:47 AM CDT 7:36 PM CDT
Nautical Twilight 6:15 AM CDT 8:08 PM CDT
Astronomical Twilight 5:43 AM CDT 8:40 PM CDT
Moon 8:46 AM CDT (9/28) 7:37 PM CDT (9/28)
Length of Visible Light 12h 48m
Length of Day
11h 54m
New Moon, 2% of the Moon is Illuminated
Sep 28
New Moon
Oct 3
First Quarter
Oct 11
Full
Oct 19
Last Quarter
Oct 26
New

Hourly Weather History & Observations

Time (CDT) Temp. Dew Point Humidity Pressure Visibility Wind Dir Wind Speed Gust Speed Precip Events Conditions
12:15 AM 51.8 °F 46.4 °F 82% 29.91 in 10.0 mi Calm Calm - N/A   Scattered Clouds
12:35 AM 50.0 °F 44.6 °F 82% 29.91 in 10.0 mi Calm Calm - N/A   Scattered Clouds
12:55 AM 48.2 °F 44.6 °F 87% 29.91 in 10.0 mi Calm Calm - N/A   Scattered Clouds
1:15 AM 48.2 °F 44.6 °F 87% 29.90 in 10.0 mi Calm Calm - N/A   Scattered Clouds
1:35 AM 48.2 °F 44.6 °F 87% 29.90 in 10.0 mi Calm Calm - N/A   Scattered Clouds
1:55 AM 48.2 °F 44.6 °F 87% 29.91 in 10.0 mi Calm Calm - N/A   Scattered Clouds
2:15 AM 46.4 °F 42.8 °F 87% 29.91 in 7.0 mi Calm Calm - N/A   Scattered Clouds
2:35 AM 48.2 °F 44.6 °F 87% 29.90 in 7.0 mi Calm Calm - N/A   Scattered Clouds
2:55 AM 48.2 °F 44.6 °F 87% 29.91 in 10.0 mi South 3.5 mph - N/A   Clear
3:15 AM 46.4 °F 42.8 °F 87% 29.90 in 10.0 mi Calm Calm - N/A   Clear
3:35 AM 44.6 °F 41.0 °F 87% 29.91 in 7.0 mi Calm Calm - N/A   Scattered Clouds
3:55 AM 46.4 °F 42.8 °F 87% 29.91 in 4.0 mi Calm Calm - N/A   Clear
4:15 AM 46.4 °F 42.8 °F 87% 29.90 in 4.0 mi Calm Calm - N/A   Scattered Clouds
4:35 AM 46.4 °F 42.8 °F 87% 29.90 in 7.0 mi Calm Calm - N/A   Scattered Clouds
4:55 AM 44.6 °F 41.0 °F 87% 29.90 in 7.0 mi Calm Calm - N/A   Scattered Clouds
5:35 AM 44.6 °F 41.0 °F 87% 29.91 in 5.0 mi Calm Calm - N/A   Scattered Clouds
5:55 AM 46.4 °F 42.8 °F 87% 29.91 in 5.0 mi Calm Calm - N/A   Scattered Clouds
6:15 AM 46.4 °F 42.8 °F 87% 29.91 in 5.0 mi Calm Calm - N/A   Scattered Clouds
6:35 AM 44.6 °F 41.0 °F 87% 29.91 in 4.0 mi Calm Calm - N/A   Scattered Clouds
6:55 AM 44.6 °F 39.2 °F 81% 29.91 in 4.0 mi Calm Calm - N/A   Scattered Clouds
7:15 AM 42.8 °F 39.2 °F 87% 29.91 in 2.5 mi Calm Calm - N/A   Scattered Clouds
7:35 AM 44.6 °F 39.2 °F 81% 29.91 in 4.0 mi Calm Calm - N/A   Scattered Clouds
7:55 AM 44.6 °F 41.0 °F 87% 29.91 in 5.0 mi Calm Calm - N/A   Scattered Clouds
8:15 AM 46.4 °F 42.8 °F 87% 29.91 in 4.0 mi Calm Calm - N/A   Clear
8:35 AM 48.2 °F 44.6 °F 87% 29.91 in 5.0 mi Calm Calm - N/A   Clear
8:55 AM 51.8 °F 48.2 °F 88% 29.91 in 7.0 mi Calm Calm - N/A   Clear
9:15 AM 55.4 °F 50.0 °F 82% 29.90 in 10.0 mi Calm Calm - N/A   Clear
9:35 AM 59.0 °F 51.8 °F 77% 29.91 in 10.0 mi Calm Calm - N/A   Clear
9:55 AM 62.6 °F 51.8 °F 68% 29.91 in 10.0 mi Calm Calm - N/A   Clear
10:15 AM 64.4 °F 51.8 °F 64% 29.91 in 10.0 mi Calm Calm - N/A   Clear
10:55 AM 69.8 °F 50.0 °F 49% 29.91 in 10.0 mi Calm Calm - N/A   Clear
11:15 AM 73.4 °F 48.2 °F 41% 29.90 in 10.0 mi Calm Calm - N/A   Clear
11:35 AM 75.2 °F 44.6 °F 34% 29.90 in 10.0 mi Calm Calm - N/A   Clear
11:55 AM 77.0 °F 44.6 °F 32% 29.90 in 10.0 mi Calm Calm - N/A   Clear
12:15 PM 78.8 °F 41.0 °F 26% 29.89 in 10.0 mi Calm Calm - N/A   Clear
12:35 PM 78.8 °F 42.8 °F 28% 29.89 in 10.0 mi Calm Calm - N/A   Clear
12:55 PM 78.8 °F 41.0 °F 26% 29.88 in 10.0 mi Calm Calm - N/A   Clear
1:15 PM 82.4 °F 39.2 °F 21% 29.88 in 10.0 mi North 3.5 mph - N/A   Clear
1:35 PM 82.4 °F 39.2 °F 21% 29.87 in 10.0 mi NNE 4.6 mph - N/A   Clear
1:55 PM 82.4 °F 39.2 °F 21% 29.86 in 10.0 mi NW 5.8 mph - N/A   Clear
2:15 PM 84.2 °F 37.4 °F 19% 29.85 in 10.0 mi NNW 6.9 mph - N/A   Clear
2:35 PM 82.4 °F 35.6 °F 19% 29.85 in 10.0 mi NW 6.9 mph - N/A   Clear
2:55 PM 82.4 °F 35.6 °F 19% 29.85 in 10.0 mi West 4.6 mph - N/A   Clear
3:15 PM 84.2 °F 35.6 °F 18% 29.85 in 10.0 mi NNW 5.8 mph - N/A   Clear
3:35 PM 84.2 °F 35.6 °F 18% 29.85 in 10.0 mi North 8.1 mph - N/A   Clear
3:55 PM 84.2 °F 37.4 °F 19% 29.84 in 10.0 mi Calm Calm - N/A   Clear
4:15 PM 84.2 °F 35.6 °F 18% 29.84 in 10.0 mi North 4.6 mph - N/A   Clear
4:35 PM 84.2 °F 35.6 °F 18% 29.84 in 10.0 mi North 5.8 mph - N/A   Clear
4:55 PM 84.2 °F 35.6 °F 18% 29.84 in 10.0 mi Calm Calm - N/A   Clear
5:15 PM 84.2 °F 35.6 °F 18% 29.84 in 10.0 mi NNW 4.6 mph - N/A   Clear
5:35 PM 82.4 °F 37.4 °F 20% 29.84 in 10.0 mi NW 4.6 mph - N/A   Clear
5:55 PM 82.4 °F 37.4 °F 20% 29.84 in 10.0 mi NW 4.6 mph - N/A   Clear
6:15 PM 80.6 °F 37.4 °F 21% 29.84 in 10.0 mi Calm Calm - N/A   Clear
6:35 PM 78.8 °F 39.2 °F 24% 29.84 in 10.0 mi Calm Calm - N/A   Clear
6:55 PM 75.2 °F 42.8 °F 31% 29.84 in 10.0 mi Calm Calm - N/A   Clear
7:15 PM 69.8 °F 48.2 °F 46% 29.85 in 10.0 mi Calm Calm - N/A   Clear
7:35 PM 68.0 °F 48.2 °F 49% 29.85 in 7.0 mi Calm Calm - N/A   Clear
7:55 PM 62.6 °F 48.2 °F 59% 29.85 in 10.0 mi Calm Calm - N/A   Scattered Clouds
8:15 PM 62.6 °F 48.2 °F 59% 29.85 in 10.0 mi Calm Calm - N/A   Scattered Clouds
8:35 PM 59.0 °F 48.2 °F 67% 29.86 in 10.0 mi Calm Calm - N/A   Scattered Clouds
8:55 PM 57.2 °F 48.2 °F 72% 29.86 in 10.0 mi Calm Calm - N/A   Scattered Clouds
9:15 PM 57.2 °F 48.2 °F 72% 29.87 in 10.0 mi Calm Calm - N/A   Scattered Clouds
9:35 PM 55.4 °F 48.2 °F 77% 29.87 in 7.0 mi Calm Calm - N/A   Scattered Clouds
9:55 PM 55.4 °F 48.2 °F 77% 29.87 in 7.0 mi Calm Calm - N/A   Clear
10:15 PM 53.6 °F 48.2 °F 82% 29.87 in 10.0 mi Calm Calm - N/A   Clear
10:35 PM 55.4 °F 48.2 °F 77% 29.87 in 10.0 mi Calm Calm - N/A   Scattered Clouds
10:55 PM 51.8 °F 46.4 °F 82% 29.88 in 10.0 mi Calm Calm - N/A   Scattered Clouds
11:15 PM 53.6 °F 48.2 °F 82% 29.88 in 10.0 mi Calm Calm - N/A   Scattered Clouds
11:35 PM 53.6 °F 46.4 °F 77% 29.88 in 10.0 mi Calm Calm - N/A   Scattered Clouds
11:55 PM 53.6 °F 46.4 °F 77% 29.87 in 10.0 mi Calm Calm - N/A   Scattered Clouds